Regional Weather Roundup
Issued by NWS

Home | Current Version | Previous Version | Graphics & Text | Print | Product List | Glossary On
Versions: 1 2 3 4 5 6 7 8 9 10 11 12 13 14 15 16 17 18 19 20 21 22 23 24 25 26 27 28 29 30 31 32 33 34 35 36 37 38 39 40 41 42 43 44 45 46 47 48 49 50
964
ASUS43 KFSD 240102
RWRSD

WEATHER ROUNDUP FOR SOUTH DAKOTA
NATIONAL WEATHER SERVICE SIOUX FALLS SD
800 PM CDT MON MAY 23 2016

NOTE: "FAIR" INDICATES FEW OR NO CLOUDS BELOW 12,000 FEET WITH NO
SIGNIFICANT WEATHER AND/OR OBSTRUCTIONS TO VISIBILITY.


SDZ001>005-009-010-012>017-240200-
NORTHWEST AND NORTH CENTRAL SOUTH DAKOTA

CITY           SKY/WX    TMP DP  RH WIND       PRES   REMARKS
BUFFALO          N/A     70  34  26 NW18      29.65R
FAITH            N/A     70  42  36 SE5       29.68S
MOBRIDGE       SUNNY     74  50  42 SE9       29.65F
$$

SDZ012>016-024>037-041>051-057-063-072>074-240200-
SOUTHWEST AND SOUTH CENTRAL SOUTH DAKOTA

CITY           SKY/WX    TMP DP  RH WIND       PRES   REMARKS
RAPID CTY ARPT SUNNY     67  29  24 W9        29.71R
PIERRE         SUNNY     74  46  36 VRB7      29.67S
CUSTER         MOSUNNY   61  24  24 W14G24    29.83R
ELLSWORTH AFB  PTSUNNY   71  29  21 W9        29.71R
PHILIP         SUNNY     73  39  29 SW8       29.68S
PINE RIDGE     MOSUNNY   69  33  26 W7        29.78R
WINNER         FAIR      76  50  40 SW5       29.70S
$$

SDZ004>011-016>023-039-040-240200-
NORTHEAST SOUTH DAKOTA

CITY           SKY/WX    TMP DP  RH WIND       PRES   REMARKS
ABERDEEN       PTCLDY    77  49  37 S7        29.68S
WATERTOWN      CLOUDY    73  55  53 S10       29.72S
BROOKINGS      CLOUDY    71  59  65 SW6       29.74S
SISSETON         N/A     76  53  44 W8        29.67S
$$

SDZ017-020-022-023-036>040-048>070-240200-
SOUTHEAST SOUTH DAKOTA

CITY           SKY/WX    TMP DP  RH WIND       PRES   REMARKS
SIOUX FALLS    CLOUDY    73  59  61 CALM      29.74S
HURON          CLEAR     72  53  51 SW5       29.70R
MITCHELL       CLEAR     75  58  55 S7        29.72R
YANKTON        CLOUDY    73  59  60 E7        29.72S
$$

ABBREVIATIONS USED IN REMARKS
   TC - TEMPERATURE IN CELSIUS
  WCI - WIND CHILL INDEX
   HX - HEAT INDEX
  VSB - VISIBILITY





USA.gov is the U.S. government's official web portal to all federal, state and local government web resources and services.